Location: Rounton
(54.4000°N, 1.3500°W)
Time: 19:14:50
(UTC+01:00)

S-56A Canister/Altair - Pass Details

Date: 17 September 2024
Orbit: 636 x 2487 km, 38.9° (Epoch: 06 October)

Event Time Altitude Azimuth Distance (km) Brightness Sun altitude
Rises 23:25:34 0° 257° (WSW) 3,873 11.3 -30.6°
Reaches altitude 10° 23:28:48 10° 241° (WSW) 3,189 10.6 -30.8°
Enters shadow 23:30:27 15° 229° (SW) 2,973 10.4 -30.9°
Maximum altitude 23:34:18 20° 197° (SSW) 2,934 - -31.1°
Drops below altitude 10° 23:41:18 10° 157° (SSE) 4,188 - -31.5°
Sets 23:46:27 0° 143° (SE) 5,522 - -31.8°
